Weather in Rucheyki

Russia / Jewish Autonomous Oblast     47°49′17″N   131°38′27″E
В апреле 2022 года жителям России запретили посещать сайт meteo.paraplan.net по решению Генеральной прокуратуры. Аудитория сайта уменьшилась в 10 раз. Владельцы сайта не видят смысла в поддержке погодного сервера в таких условиях. Сайт будет закрыт в октябре.
temp.,
°C
wind,
m/s
gust,
m/s
humid.,
%
clouds,
%
prec.,
mm/h
press.,
hPa
HPBL,
m
3 october, mon
mon301:00+13n2280100 0.0 101415
04:00+11n3686100 0.0 1013134
07:00+11nw2382100 0.1 1013133
10:00+11nnw4575100 0.1 1013581
13:00+9nnw5874100 0.1 1013590
16:00+5nw5987100 1.6 1014619
19:00+3nw61180100 1.8 1017730
22:00+3nw61167100 1.8 1017907
4 october, tue
tue401:00+2wnw511660 0.0 1017442
04:00−1w510740 0.0 1018254
07:00−2wnw511740 0.0 1018273
10:00+2wnw813505 0.0 10171302
13:00+6nw91139100 0.0 10162087
16:00+6nw91138100 0.0 10162292
19:00+4wnw511475 0.0 1017356
22:00+1wnw511580 0.0 1018270
5 october, wed
wed501:000w511590 0.0 1018234
04:00−1w411600 0.0 1019218
07:00−2w410630 0.0 1019192
10:00+3wnw59430 0.0 1020790
13:00+7wnw7932100 0.0 10182540
16:00+7wnw71031100 0.0 10172509
19:00+4wnw354625 0.0 101879
22:00+1w35535 0.0 102072
6 october, thu
thu601:000w37585 0.0 1020111
04:00−1w48620 0.0 1021143
07:00−2w37630 0.0 1021108
10:00+5w46410 0.0 1022428
13:00+9w59285 0.0 10202435
16:00+11wnw692593 0.0 10192797
19:00+5w36415 0.0 101970
22:00+3w48480 0.0 1021114
7 october, fri
fri701:00+2w34530 0.0 102144
04:00+1wsw33550 0.0 102128
07:000w33560 0.0 102227
10:00+6w34410 0.0 1022277
13:00+10w35290 0.0 10221722
16:00+11w34275 0.0 10212183
19:00+7ssw22387 0.0 102210
22:00+4sw33455 0.0 102322